Palos Park, Illinois, United States (60464)
Lat: 41.67N, Lon: 87.83W
Wx Zone: ILZ014
Local Info
Past Weather Observations for Thursday, May 19, 2016

NOTE: This archive is for the closest National Weather Service station to Palos Park. Information may differ from the station used for current weather conditions.

Click here for Long-term Archive

Time Weather Temperature Dewpoint Humidity Pressure Winds Precip Visibility
23:53
Mostly Cloudy
55°F / 13°C 36°F / 2°C 47% 30.18 in
(1022 mb)
E 4.6 mph
(E 7 kph)
- 10SM
22:53
Mostly Cloudy
55°F / 13°C 34°F / 1°C 44% 30.18 in
(1022 mb)
E 4.6 mph
(E 7 kph)
- 10SM
21:53
Partly Cloudy
55°F / 13°C 34°F / 1°C 44% 30.15 in
(1021 mb)
E 6.9 mph
(E 11 kph)
- 10SM
20:53
Partly Cloudy
57°F / 14°C 30°F / -1°C 36% 30.18 in
(1022 mb)
E 6.9 mph
(E 11 kph)
- 10SM
19:53
Partly Cloudy
61°F / 16°C 28°F / -2°C 29% 30.15 in
(1021 mb)
E 9.2 mph
(E 15 kph)
- 10SM
18:53
Partly Cloudy
63°F / 17°C 25°F / -4°C 24% 30.15 in
(1021 mb)
ENE 10.4 mph
(ENE 17 kph)
- 10SM
17:53
Partly Cloudy
64°F / 18°C 25°F / -4°C 22% 30.15 in
(1021 mb)
ENE 8.1 mph
(ENE 13 kph)
- 10SM
16:53
Partly Cloudy
66°F / 19°C 21°F / -6°C 18% 30.18 in
(1022 mb)
ENE 8.1 mph
(ENE 13 kph)
- 10SM
15:53
Partly Cloudy
66°F / 19°C 23°F / -5°C 19% 30.18 in
(1022 mb)
ENE 9.2 mph
(ENE 15 kph)
- 10SM
14:53
Partly Cloudy
68°F / 20°C 25°F / -4°C 20% 30.18 in
(1022 mb)
E 6.9 mph
(E 11 kph)
- 10SM
13:53
Partly Cloudy
68°F / 20°C 27°F / -3°C 21% 30.18 in
(1022 mb)
ENE 9.2 mph
(ENE 15 kph)
- 10SM
12:53
Partly Cloudy
66°F / 19°C 30°F / -1°C 26% 30.21 in
(1023 mb)
NE 10.4 mph
(NE 17 kph)
- 10SM
11:53
Partly Cloudy
66°F / 19°C 30°F / -1°C 26% 30.21 in
(1023 mb)
ENE 9.2 mph
(ENE 15 kph)
- 10SM
10:53
Partly Cloudy
66°F / 19°C 32°F / 0°C 28% 30.24 in
(1024 mb)
ENE 6.9 mph
(ENE 11 kph)
- 10SM
09:53
Partly Cloudy
64°F / 18°C 30°F / -1°C 28% 30.24 in
(1024 mb)
E 6.9 mph
(E 11 kph)
- 10SM
08:53
Partly Cloudy
64°F / 18°C 34°F / 1°C 32% 30.24 in
(1024 mb)
Variable 3.5 mph
(Variable 6 kph)
- 10SM
07:53
Partly Cloudy
61°F / 16°C 34°F / 1°C 36% 30.24 in
(1024 mb)
SE 4.6 mph
(SE 7 kph)
- 10SM
06:53
Partly Cloudy
55°F / 13°C 36°F / 2°C 47% 30.24 in
(1024 mb)
ESE 3.5 mph
(ESE 6 kph)
- 10SM
05:53
Partly Cloudy
52°F / 11°C 39°F / 4°C 62% 30.21 in
(1023 mb)
Calm - 10SM
04:53
Partly Cloudy
45°F / 7°C 37°F / 3°C 76% 30.21 in
(1023 mb)
Calm - 10SM
03:53
Clear
46°F / 8°C 36°F / 2°C 66% 30.21 in
(1023 mb)
NNW 3.5 mph
(NNW 6 kph)
- 10SM
02:53
Clear
46°F / 8°C 34°F / 1°C 62% 30.21 in
(1023 mb)
Calm - 10SM
01:53
Clear
46°F / 8°C 34°F / 1°C 62% 30.21 in
(1023 mb)
Calm - 10SM
00:53
Clear
48°F / 9°C 32°F / 0°C 54% 30.21 in
(1023 mb)
Calm - 10SM
Time Weather Temperature Dewpoint Humidity Pressure Winds Precip Visibility


Weather for websites

WeatherForYou.com, LLC is not responsible for any damages or problems caused by this service. Current weather conditions are obtained from the closest station including government and personal stations which may have varying degrees of accuracy. Weather forecasts are derived from the NOAA NDFD. Like all things, this site belongs to Jesus Christ... He just trusts us to maintain it. If you have any questions or comments email webmaster@weatherforyou.com

Copyright © 2016, WeatherForYou.com LLC. All rights reserved.